Weather History for Columbia / Mount Pleasant, TN

Change the Weather History Date:

Monday, January 13, 2014

  Actual Average (KBNA) Record (KBNA)
Temperature  
Mean Temperature 50 °F 37 °F  
Max Temperature 53 °F 47 °F 75 °F (1960)
Min Temperature 46 °F 28 °F 0 °F (1886)
Degree Days  
Heating Degree Days 16    
Month to date heating degree days  
Since 1 July heating degree days  
Cooling Degree Days 0    
Month to date cooling degree days  
Year to date cooling degree days  
Moisture  
Dew Point 47 °F    
Average Humidity 89    
Maximum Humidity 100    
Minimum Humidity 54    
Precipitation  
Precipitation 0.00 in 0.12 in 1.76 in (2013)
Month to date precipitation 1.52  
Year to date precipitation 1.52  
Snow  
Snow 0.00 in 0.10 in 3.50 in (1904)
Month to date snowfall 0.9  
Since 1 July snowfall 1.4  
Snow Depth -    
Sea Level Pressure  
Sea Level Pressure 29.87 in    
Wind  
Wind Speed 10 mph (SSW)    
Max Wind Speed 17 mph    
Max Gust Speed -    
Visibility 8 miles    
Events      
T = Trace of Precipitation, MM = Missing Value Source: NWS Daily Summary

Daily Weather History Graph

Daily Weather History Graph

Search for Another Location

Airport:

Trip Planner

Search our weather history database for the weather conditions in past years. The results will help you decide how hot, cold, wet, or windy it might be!

Date:

Astronomy

Jan. 13, 2014 Rise Set
Actual Time 6:58 AM CST 4:57 PM CST
Civil Twilight 6:30 AM CST 5:25 PM CST
Nautical Twilight 5:58 AM CST 5:56 PM CST
Astronomical Twilight 5:28 AM CST 6:27 PM CST
Moon 3:11 PM CST (1/13) 4:47 AM CST (1/13)
Length of Visible Light 10h 54m
Length of Day
9h 59m
Waxing Gibbous, 95% of the Moon is Illuminated
Jan 13
Waxing Gibbous
Jan 15
Full
Jan 23
Last Quarter
Jan 30
New
Feb 6
First Quarter

Hourly Weather History & Observations

Time (CST) Temp. Windchill Dew Point Humidity Pressure Visibility Wind Dir Wind Speed Gust Speed Precip Events Conditions
12:35 AM 53.6 °F - 37.4 °F 54% 29.97 in 10.0 mi South 10.4 mph - N/A   Clear
12:55 AM 51.8 °F - 37.4 °F 58% 29.98 in 10.0 mi SSW 11.5 mph - N/A   Clear
1:15 AM 53.6 °F - 37.4 °F 54% 29.97 in 10.0 mi South 11.5 mph - N/A   Clear
1:35 AM 53.6 °F - 37.4 °F 54% 29.97 in 10.0 mi South 12.7 mph - N/A   Clear
1:55 AM 51.8 °F - 37.4 °F 58% 29.98 in 10.0 mi SSW 13.8 mph - N/A   Clear
2:15 AM 51.8 °F - 37.4 °F 58% 29.99 in 10.0 mi SSW 17.3 mph - N/A   Clear
2:35 AM 51.8 °F - 37.4 °F 58% 29.98 in 10.0 mi South 15.0 mph - N/A   Clear
2:55 AM 51.8 °F - 39.2 °F 62% 29.98 in 10.0 mi SSW 16.1 mph - N/A   Clear
3:15 AM 51.8 °F - 39.2 °F 62% 29.97 in 10.0 mi South 13.8 mph - N/A   Clear
3:35 AM 51.8 °F - 37.4 °F 58% 29.94 in 10.0 mi South 11.5 mph - N/A   Partly Cloudy
3:55 AM 51.8 °F - 39.2 °F 62% 29.92 in 10.0 mi South 9.2 mph - N/A   Mostly Cloudy
4:15 AM 51.8 °F - 37.4 °F 58% 29.90 in 10.0 mi South 8.1 mph - N/A   Mostly Cloudy
4:35 AM 51.8 °F - 39.2 °F 62% 29.94 in 10.0 mi SSW 15.0 mph - N/A   Mostly Cloudy
4:55 AM 51.8 °F - 37.4 °F 58% 29.95 in 10.0 mi SSW 17.3 mph - N/A   Partly Cloudy
5:15 AM 51.8 °F - 37.4 °F 58% 29.95 in 10.0 mi South 17.3 mph - N/A   Mostly Cloudy
5:35 AM 51.8 °F - 37.4 °F 58% 29.95 in 10.0 mi SSW 16.1 mph - N/A   Overcast
5:55 AM 50.0 °F - 39.2 °F 66% 29.96 in 10.0 mi SSW 13.8 mph - N/A   Overcast
6:15 AM 48.2 °F - 41.0 °F 76% 29.95 in 10.0 mi South 12.7 mph - N/A   Overcast
6:35 AM 46.4 °F 41.5 °F 42.8 °F 87% 29.95 in 10.0 mi South 10.4 mph - N/A   Overcast
6:55 AM 46.4 °F 40.7 °F 44.6 °F 93% 29.94 in 8.0 mi South 12.7 mph - N/A   Overcast
7:15 AM 46.4 °F 41.9 °F 44.6 °F 93% 29.94 in 10.0 mi South 9.2 mph - N/A   Overcast
7:35 AM 46.4 °F 42.4 °F 46.4 °F 100% 29.95 in 10.0 mi South 8.1 mph - N/A   Overcast
7:55 AM 46.4 °F 41.5 °F 46.4 °F 100% 29.95 in 7.0 mi South 10.4 mph - N/A   Overcast
8:15 AM 46.4 °F 41.5 °F 46.4 °F 100% 29.95 in 6.0 mi South 10.4 mph - N/A   Overcast
8:35 AM 46.4 °F 41.9 °F 46.4 °F 100% 29.95 in 6.0 mi South 9.2 mph - N/A   Overcast
8:55 AM 46.4 °F 42.4 °F 46.4 °F 100% 29.94 in 5.0 mi South 8.1 mph - N/A   Overcast
9:15 AM 48.2 °F - 46.4 °F 93% 29.93 in 5.0 mi South 6.9 mph - N/A   Overcast
9:35 AM 48.2 °F - 48.2 °F 100% 29.94 in 5.0 mi South 5.8 mph - N/A   Overcast
9:55 AM 48.2 °F - 48.2 °F 100% 29.94 in 6.0 mi South 6.9 mph - N/A   Overcast
10:15 AM 48.2 °F - 48.2 °F 100% 29.92 in 5.0 mi South 5.8 mph - N/A   Overcast
10:35 AM 48.2 °F - 48.2 °F 100% 29.91 in 10.0 mi South 8.1 mph - N/A   Overcast
10:55 AM 50.0 °F - 50.0 °F 100% 29.90 in 10.0 mi South 11.5 mph - N/A   Overcast
11:15 AM 50.0 °F - 50.0 °F 100% 29.88 in 9.0 mi South 9.2 mph - N/A   Overcast
11:35 AM 51.8 °F - 51.8 °F 100% 29.85 in 10.0 mi South 12.7 mph - N/A   Overcast
11:55 AM 53.6 °F - 53.6 °F 100% 29.82 in 10.0 mi South 9.2 mph - N/A   Overcast
12:15 PM 53.6 °F - 53.6 °F 100% 29.81 in 10.0 mi South 13.8 mph - N/A   Overcast
12:35 PM 51.8 °F - 51.8 °F 100% 29.79 in 10.0 mi South 12.7 mph - N/A   Overcast
12:55 PM 53.6 °F - 51.8 °F 94% 29.78 in 10.0 mi South 12.7 mph - N/A   Overcast
1:15 PM 53.6 °F - 53.6 °F 100% 29.78 in 10.0 mi SSW 11.5 mph - N/A   Overcast
1:35 PM 53.6 °F - 53.6 °F 100% 29.79 in 10.0 mi SSW 12.7 mph - N/A   Overcast
1:55 PM 51.8 °F - 51.8 °F 100% 29.78 in 10.0 mi SSW 15.0 mph - N/A   Overcast
2:15 PM 51.8 °F - 51.8 °F 100% 29.79 in 10.0 mi South 9.2 mph - N/A   Overcast
2:35 PM 51.8 °F - 51.8 °F 100% 29.78 in 10.0 mi SSW 9.2 mph - N/A   Overcast
2:55 PM 51.8 °F - 51.8 °F 100% 29.78 in 10.0 mi South 9.2 mph - N/A   Overcast
3:15 PM 51.8 °F - 51.8 °F 100% 29.79 in 8.0 mi South 10.4 mph - N/A   Overcast
3:35 PM 51.8 °F - 51.8 °F 100% 29.79 in 4.0 mi SSW 8.1 mph - N/A   Overcast
3:55 PM 51.8 °F - 51.8 °F 100% 29.78 in 3.0 mi South 8.1 mph - N/A   Overcast
4:15 PM 51.8 °F - 51.8 °F 100% 29.78 in 5.0 mi South 6.9 mph - N/A   Overcast
4:35 PM 51.8 °F - 51.8 °F 100% 29.79 in 6.0 mi South 4.6 mph - N/A   Overcast
4:55 PM 51.8 °F - 51.8 °F 100% 29.79 in 2.5 mi South 5.8 mph - N/A   Overcast
5:15 PM 51.8 °F - 51.8 °F 100% 29.79 in 4.0 mi SSW 5.8 mph - N/A   Overcast
5:35 PM 51.8 °F - 51.8 °F 100% 29.78 in 4.0 mi SSW 4.6 mph - N/A   Overcast
5:55 PM 51.8 °F - 51.8 °F 100% 29.79 in 4.0 mi SSW 5.8 mph - N/A   Overcast
6:15 PM 51.8 °F - 51.8 °F 100% 29.79 in 2.5 mi South 5.8 mph - N/A   Overcast
6:35 PM 51.8 °F - 51.8 °F 100% 29.79 in 4.0 mi South 3.5 mph - N/A   Overcast
6:55 PM 51.8 °F - 51.8 °F 100% 29.80 in 6.0 mi SW 3.5 mph - N/A   Overcast
7:15 PM 51.8 °F - 51.8 °F 100% 29.81 in 3.0 mi SSW 4.6 mph - N/A   Overcast
7:35 PM 51.8 °F - 51.8 °F 100% 29.80 in 4.0 mi SSW 6.9 mph - N/A   Overcast
7:55 PM 51.8 °F - 51.8 °F 100% 29.80 in 8.0 mi SSW 4.6 mph - N/A   Overcast
8:15 PM 51.8 °F - 51.8 °F 100% 29.80 in 9.0 mi South 5.8 mph - N/A   Overcast
8:35 PM 51.8 °F - 51.8 °F 100% 29.81 in - WSW 4.6 mph - N/A   Unknown
8:55 PM 51.8 °F - 51.8 °F 100% 29.81 in 6.0 mi SW 4.6 mph - N/A   Overcast
9:15 PM 51.8 °F - 51.8 °F 100% 29.82 in 9.0 mi West 6.9 mph - N/A   Overcast
9:35 PM 51.8 °F - 51.8 °F 100% 29.83 in 10.0 mi WNW 3.5 mph - N/A   Mostly Cloudy
9:55 PM 51.8 °F - 51.8 °F 100% 29.83 in 4.0 mi WNW 3.5 mph - N/A   Overcast
10:15 PM 51.8 °F - 51.8 °F 100% 29.84 in 10.0 mi WNW 3.5 mph - N/A   Overcast
10:35 PM 51.8 °F - 51.8 °F 100% 29.84 in 10.0 mi Variable 4.6 mph - N/A   Overcast
10:55 PM 51.8 °F - 51.8 °F 100% 29.84 in 10.0 mi Variable 4.6 mph - N/A   Overcast
11:15 PM 50.0 °F - 50.0 °F 100% 29.84 in 10.0 mi Calm Calm - N/A   Overcast
11:35 PM 50.0 °F - 50.0 °F 100% 29.84 in 10.0 mi WNW 3.5 mph - N/A   Overcast
11:55 PM 50.0 °F - 50.0 °F 100% 29.84 in 10.0 mi WNW 4.6 mph - N/A   Overcast